Weather History for Istanbul, Turkey

Change the Weather History Date:

Monday, May 19, 2014

  Actual Average Record
Temperature  
Mean Temperature 66 °F -  
Max Temperature 74 °F 74 °F 84 °F (2008)
Min Temperature 58 °F 60 °F 48 °F (2004)
Cooling Degree Days 1    
Growing Degree Days 16 (Base 50)    
Moisture  
Dew Point 52 °F    
Average Humidity 62    
Maximum Humidity 82    
Minimum Humidity 29    
Precipitation  
Precipitation 0.00 in - - ()
Sea Level Pressure  
Sea Level Pressure 30.09 in    
Wind  
Wind Speed 0 mph ()    
Max Wind Speed 4 mph    
Max Gust Speed 14 mph    
Visibility 6.4 miles    
Events      
Averages and records for this station are not official NWS values.
T = Trace of Precipitation, MM = Missing Value Source: Averaged Metar Reports

Daily Weather History Graph

Daily Weather History Graph

Search for Another Location

Airport:

Trip Planner

Search our weather history database for the weather conditions in past years. The results will help you decide how hot, cold, wet, or windy it might be!

Date:

Astronomy

May. 19, 2014 Rise Set
Actual Time 5:43 AM EEST 8:19 PM EEST
Civil Twilight 5:12 AM EEST 8:51 PM EEST
Nautical Twilight 4:32 AM EEST 9:30 PM EEST
Astronomical Twilight 3:48 AM EEST 10:15 PM EEST
Moon No Moon Rise 10:18 AM EEST (5/19)
Length of Visible Light 15h 38m
Length of Day
14h 35m
Waning Gibbous, 74% of the Moon is Illuminated
May 19
Waning Gibbous
May 21
Last Quarter
May 28
New
Jun 5
First Quarter
Jun 13
Full

Hourly Weather History & Observations

Time (EEST) Temp. Dew Point Humidity Pressure Visibility Wind Dir Wind Speed Gust Speed Precip Events Conditions
12:00 AM 63 °F 51 °F 56% 30.10 in 6 mi Calm Calm - -  
12:20 AM 60.8 °F 50.0 °F 68% 30.09 in - Calm Calm - N/A   Clear
12:50 AM 60.8 °F 50.0 °F 68% 30.09 in - Calm Calm - N/A   Clear
1:20 AM 62.6 °F 51.8 °F 68% 30.09 in - Calm Calm - N/A   Clear
1:50 AM 60.8 °F 51.8 °F 72% 30.09 in - Calm Calm - N/A   Clear
2:20 AM 60.8 °F 51.8 °F 72% 30.09 in - Calm Calm - N/A   Clear
2:50 AM 59.0 °F 51.8 °F 77% 30.09 in - Calm Calm - N/A   Clear
3:00 AM 59 °F 52 °F 71% 30.10 in 6 mi Calm Calm - -  
3:20 AM 59.0 °F 53.6 °F 82% 30.09 in - Calm Calm - N/A   Clear
3:50 AM 59.0 °F 53.6 °F 82% 30.09 in - Calm Calm - N/A   Clear
4:20 AM 60.8 °F 53.6 °F 77% 30.09 in - Calm Calm - N/A   Clear
4:50 AM 60.8 °F 53.6 °F 77% 30.09 in - Calm Calm - N/A   Clear
5:20 AM 60.8 °F 53.6 °F 77% 30.09 in - Calm Calm - N/A   Clear
5:50 AM 59.0 °F 51.8 °F 77% 30.09 in - Calm Calm - N/A   Clear
6:00 AM 59 °F 53 °F 73% 30.11 in 6 mi Calm Calm - -  
6:20 AM 60.8 °F 53.6 °F 77% 30.09 in - Calm Calm - N/A   Clear
6:50 AM 60.8 °F 55.4 °F 82% 30.09 in - Calm Calm - N/A   Clear
7:20 AM 64.4 °F 55.4 °F 73% 30.09 in - Calm Calm - N/A   Clear
7:50 AM 64.4 °F 55.4 °F 73% 30.09 in - Calm Calm - N/A   Clear
8:20 AM 64.4 °F 57.2 °F 77% 30.12 in - Calm Calm - N/A   Clear
8:50 AM 64.4 °F 55.4 °F 73% 30.12 in - Calm Calm - N/A   Clear
9:00 AM 64 °F 55 °F 66% 30.13 in 6 mi Calm Calm - -  
9:20 AM 64.4 °F 55.4 °F 73% 30.12 in - Variable 2.3 mph - N/A   Clear
9:50 AM 66.2 °F 55.4 °F 68% 30.12 in - Calm Calm - N/A   Clear
10:20 AM 66.2 °F 55.4 °F 68% 30.12 in 6.2 mi Variable 1.2 mph - N/A   Partly Cloudy
10:50 AM 66.2 °F 57.2 °F 73% 30.12 in 6.2 mi Calm Calm - N/A   Partly Cloudy
11:20 AM 66.2 °F 55.4 °F 68% 30.12 in 6.2 mi Variable 1.2 mph - N/A   Partly Cloudy
11:50 AM 66.2 °F 57.2 °F 73% 30.12 in 6.2 mi Calm Calm - N/A   Scattered Clouds
12:00 PM 66 °F 58 °F 68% 30.14 in 6 mi Calm Calm - -   Partly Cloudy
12:20 PM 66.2 °F 59.0 °F 78% 30.12 in 6.2 mi Variable 1.2 mph - N/A   Scattered Clouds
12:50 PM 68.0 °F 57.2 °F 68% 30.12 in 6.2 mi Calm Calm - N/A   Scattered Clouds
1:20 PM 68.0 °F 57.2 °F 68% 30.12 in 6.2 mi Calm Calm - N/A   Scattered Clouds
1:50 PM 69.8 °F 55.4 °F 60% 30.12 in 6.2 mi Calm Calm - N/A   Scattered Clouds
2:20 PM 69.8 °F 51.8 °F 53% 30.09 in 6.2 mi Calm Calm - N/A   Scattered Clouds
2:50 PM 71.6 °F 51.8 °F 50% 30.09 in 6.2 mi Calm Calm - N/A   Scattered Clouds
3:00 PM 71 °F 51 °F 38% 30.11 in 6 mi Calm Calm - -   Partly Cloudy
3:20 PM 73.4 °F 50.0 °F 44% 30.09 in 6.2 mi Calm Calm - N/A   Scattered Clouds
4:20 PM 73.4 °F 50.0 °F 44% 30.06 in 6.2 mi Calm Calm - N/A   Partly Cloudy
5:50 PM 73.4 °F 53.6 °F 50% 30.06 in 6.2 mi Calm Calm - N/A   Partly Cloudy
6:00 PM 73 °F 51 °F 35% 30.08 in 6 mi Calm Calm - -   Scattered Clouds
6:20 PM 73.4 °F 50.0 °F 44% 30.06 in - Calm Calm - N/A   Clear
6:50 PM 73.4 °F 50.0 °F 44% 30.06 in - Calm Calm - N/A   Clear
7:20 PM 73.4 °F 48.2 °F 41% 30.06 in - Variable 1.2 mph - N/A   Clear
7:50 PM 73.4 °F 46.4 °F 38% 30.06 in - Variable 2.3 mph - N/A   Clear
8:20 PM 71.6 °F 48.2 °F 43% 30.06 in - NNE 3.5 mph - N/A   Clear
8:50 PM 71.6 °F 46.4 °F 41% 30.06 in - Variable 2.3 mph - N/A   Clear
9:00 PM 72 °F 47 °F 29% 30.09 in 12 mi ENE 2.3 mph - -  
9:20 PM 69.8 °F 48.2 °F 46% 30.06 in - Variable 2.3 mph 13.8 mph N/A   Clear
9:50 PM 68.0 °F 48.2 °F 49% 30.06 in - Variable 2.3 mph - N/A   Clear
10:20 PM 68.0 °F 48.2 °F 49% 30.06 in - Variable 2.3 mph - N/A   Clear
10:50 PM 66.2 °F 48.2 °F 52% 30.09 in - Variable 1.2 mph 12.7 mph N/A   Clear
11:20 PM 66.2 °F 48.2 °F 52% 30.06 in - Calm Calm - N/A   Clear
11:50 PM 66.2 °F 48.2 °F 52% 30.06 in - Variable 2.3 mph - N/A   Clear